Tracking 31027 objects as of 19-Jul-2025
HD Live streaming from Space Station
objects crossing your sky now

STARLINK-1302

Track STARLINK-1302 now!
10-day predictions
STARLINK-1302 is classified as:


NORAD ID: 45375
Int'l Code: 2020-019R
Perigee: 553.1 km
Apogee: 555.6 km
Inclination: 53.1 °
Period: 95.6 minutes
Semi major axis: 6925 km
RCS: Unknown
Launch date: March 18, 2020
Source: United States (US)
Launch site: AIR FORCE EASTERN TEST RANGE (AFETR)
Your satellite tracking list
IRIDIUM 33 DEB
Track 1 satellite(s)




NASA's NSSDC Master Catalog

Two Line Element Set (TLE):
1 45375U 20019R   25199.24050807  .00000168  00000-0  30202-4 0  9994
2 45375  53.0561 139.1004 0001804  76.4887 283.6303 15.06396543294391
Source of the keplerian elements: AFSPC